| time (UTC) | temp F | wind direction | speed MPH | gust MPH | rain 1hr in | rain 24hr in | rain mn in | humidity % | barometer mb |
| 20260906104311 | 65 | 18 | 0.0 | 1.0 | 0.00 | 0.00 | 0.00 | 99 | 1031.7 |
| 20260906103809 | 65 | 35 | 0.0 | 1.0 | 0.00 | 0.00 | 0.00 | 99 | 1031.8 |
| 20260906103309 | 65 | 343 | 0.0 | 2.0 | 0.00 | 0.00 | 0.00 | 99 | 1031.7 |
| 20260906102805 | 65 | 333 | 2.0 | 3.0 | 0.00 | 0.00 | 0.00 | 99 | 1031.5 |
| 20260906102306 | 65 | 1 | 2.0 | 4.0 | 0.00 | 0.00 | 0.00 | 99 | 1031.6 |
| 20260906101759 | 65 | 33 | 4.0 | 6.0 | 0.00 | 0.00 | 0.00 | 99 | 1031.7 |
| 20260906101254 | 65 | 3 | 3.0 | 4.0 | 0.00 | 0.00 | 0.00 | 99 | 1031.5 |
| 20260906100749 | 65 | 46 | 3.0 | 3.0 | 0.00 | 0.00 | 0.00 | 99 | 1031.4 |
| 20260906100248 | 65 | 337 | 2.0 | 3.0 | 0.00 | 0.00 | 0.00 | 99 | 1031.4 |
| 20260906095744 | 65 | 15 | 1.0 | 2.0 | 0.00 | 0.00 | 0.00 | 99 | 1031.3 |
| 20260906095239 | 65 | 39 | 0.0 | 1.0 | 0.00 | 0.00 | 0.00 | 99 | 1031.5 |
| 20260906094738 | 65 | 46 | 1.0 | 3.0 | 0.00 | 0.00 | 0.00 | 99 | 1031.0 |
| 20260906094234 | 65 | 45 | 1.0 | 1.0 | 0.00 | 0.00 | 0.00 | 99 | 1031.4 |
| 20260906093730 | 65 | 353 | 0.0 | 1.0 | 0.00 | 0.00 | 0.00 | 99 | 1031.4 |
| 20260906093225 | 65 | 24 | 1.0 | 2.0 | 0.00 | 0.00 | 0.00 | 99 | 1031.3 |
| 20260906092721 | 65 | 47 | 0.0 | 1.0 | 0.00 | 0.00 | 0.00 | 99 | 1031.2 |
| 20260906092220 | 65 | 47 | 0.0 | 1.0 | 0.00 | 0.00 | 0.00 | 99 | 1031.0 |
| 20260906091716 | 65 | 116 | 1.0 | 1.0 | 0.00 | 0.00 | 0.00 | 99 | 1030.9 |
| 20260906091207 | 65 | 117 | 0.0 | 1.0 | 0.00 | 0.00 | 0.00 | 99 | 1031.2 |
| 20260906090703 | 65 | 74 | 0.0 | 0.0 | 0.00 | 0.00 | 0.00 | 99 | 1030.8 |
| 20260906090202 | 65 | 59 | 0.0 | 2.0 | 0.00 | 0.00 | 0.00 | 99 | 1030.9 |
| 20260906085701 | 65 | 227 | 0.0 | 0.0 | 0.00 | 0.00 | 0.00 | 99 | 1031.0 |
| 20260906085200 | 65 | 227 | 0.0 | 0.0 | 0.00 | 0.00 | 0.00 | 99 | 1031.2 |
| 20260906084655 | 65 | 236 | 0.0 | 0.0 | 0.00 | 0.00 | 0.00 | 99 | 1031.0 |
| 20260906084154 | 65 | 339 | 0.0 | 0.0 | 0.00 | 0.00 | 0.00 | 99 | 1031.2 |
| 20260906083649 | 65 | 339 | 0.0 | 0.0 | 0.00 | 0.00 | 0.00 | 99 | 1031.4 |
| 20260906083144 | 65 | 338 | 0.0 | 0.0 | 0.00 | 0.00 | 0.00 | 99 | 1031.0 |
| 20260906082640 | 65 | 341 | 0.0 | 0.0 | 0.00 | 0.00 | 0.00 | 99 | 1031.2 |
| 20260906082135 | 65 | 25 | 0.0 | 0.0 | 0.00 | 0.00 | 0.00 | 99 | 1031.0 |
| 20260906081631 | 65 | 319 | 0.0 | 0.0 | 0.00 | 0.00 | 0.00 | 99 | 1031.4 |
| 20260906081126 | 65 | 319 | 0.0 | 0.0 | 0.00 | 0.00 | 0.00 | 99 | 1031.2 |
| 20260906080623 | 65 | 20 | 0.0 | 0.0 | 0.00 | 0.00 | 0.00 | 99 | 1031.3 |
| 20260906080119 | 65 | 21 | 0.0 | 0.0 | 0.00 | 0.00 | 0.00 | 99 | 1031.0 |
| 20260906075618 | 65 | 18 | 0.0 | 0.0 | 0.00 | 0.00 | 0.00 | 99 | 1030.9 |
| 20260906075113 | 65 | 15 | 0.0 | 0.0 | 0.00 | 0.00 | 0.00 | 99 | 1030.9 |
| 20260906074608 | 65 | 86 | 0.0 | 1.0 | 0.00 | 0.00 | 0.00 | 99 | 1031.2 |
| 20260906074107 | 65 | 233 | 1.0 | 1.0 | 0.00 | 0.00 | 0.00 | 99 | 1030.8 |
| 20260906073601 | 65 | 233 | 0.0 | 0.0 | 0.00 | 0.00 | 0.00 | 99 | 1030.9 |
| 20260906073052 | 65 | 233 | 0.0 | 0.0 | 0.00 | 0.00 | 0.00 | 99 | 1030.9 |
| 20260906072546 | 65 | 233 | 0.0 | 0.0 | 0.00 | 0.00 | 0.00 | 99 | 1031.0 |
| 20260906072042 | 65 | 254 | 0.0 | 0.0 | 0.00 | 0.00 | 0.00 | 99 | 1031.0 |
| 20260906071538 | 65 | 251 | 0.0 | 1.0 | 0.00 | 0.00 | 0.00 | 99 | 1031.2 |
| 20260906071033 | 65 | 354 | 1.0 | 1.0 | 0.00 | 0.00 | 0.00 | 99 | 1031.3 |
| 20260906070530 | 65 | 354 | 0.0 | 1.0 | 0.00 | 0.00 | 0.00 | 99 | 1031.0 |
| 20260906070025 | 65 | 0 | 1.0 | 2.0 | 0.00 | 0.00 | 0.00 | 99 | 1031.3 |
| 20260906065524 | 65 | 9 | 1.0 | 3.0 | 0.00 | 0.00 | 0.00 | 99 | 1031.2 |
| 20260906065020 | 65 | 19 | 0.0 | 0.0 | 0.00 | 0.00 | 0.00 | 99 | 1031.2 |
| 20260906064517 | 65 | 343 | 0.0 | 0.0 | 0.00 | 0.00 | 0.00 | 99 | 1031.3 |
| 20260906064016 | 65 | 336 | 0.0 | 0.0 | 0.00 | 0.00 | 0.00 | 99 | 1031.5 |
| 20260906063512 | 65 | 242 | 0.0 | 0.0 | 0.00 | 0.00 | 0.00 | 99 | 1031.4 |
| 20260906063008 | 66 | 240 | 0.0 | 0.0 | 0.00 | 0.00 | 0.00 | 99 | 1031.7 |
| 20260906062502 | 66 | 240 | 0.0 | 0.0 | 0.00 | 0.00 | 0.00 | 99 | 1031.5 |
| 20260906061957 | 65 | 240 | 0.0 | 1.0 | 0.00 | 0.00 | 0.00 | 99 | 1031.6 |
| 20260906061454 | 65 | 225 | 0.0 | 2.0 | 0.00 | 0.00 | 0.00 | 99 | 1031.7 |
| 20260906060953 | 66 | 223 | 2.0 | 2.0 | 0.00 | 0.00 | 0.00 | 99 | 1031.5 |
| 20260906060450 | 66 | 224 | 1.0 | 1.0 | 0.00 | 0.00 | 0.00 | 99 | 1031.7 |
| 20260906055946 | 66 | 224 | 0.0 | 1.0 | 0.00 | 0.00 | 0.00 | 99 | 1031.5 |
| 20260906055442 | 66 | 223 | 0.0 | 1.0 | 0.00 | 0.00 | 0.00 | 99 | 1031.5 |
| 20260906054937 | 66 | 219 | 2.0 | 2.0 | 0.00 | 0.00 | 0.00 | 99 | 1031.7 |
| 20260906054432 | 66 | 253 | 1.0 | 1.0 | 0.00 | 0.00 | 0.00 | 99 | 1031.6 |
| 20260906053928 | 66 | 358 | 0.0 | 1.0 | 0.00 | 0.00 | 0.00 | 99 | 1031.5 |
| 20260906053424 | 66 | 358 | 0.0 | 0.0 | 0.00 | 0.00 | 0.00 | 99 | 1031.6 |
| 20260906052919 | 66 | 358 | 0.0 | 1.0 | 0.00 | 0.00 | 0.00 | 99 | 1031.7 |
| 20260906052415 | 66 | 1 | 1.0 | 2.0 | 0.00 | 0.00 | 0.00 | 99 | 1031.4 |
| 20260906051912 | 66 | 14 | 1.0 | 2.0 | 0.00 | 0.00 | 0.00 | 99 | 1031.6 |
| 20260906051412 | 66 | 23 | 1.0 | 2.0 | 0.00 | 0.00 | 0.00 | 99 | 1031.7 |
| 20260906050909 | 66 | 45 | 3.0 | 3.0 | 0.00 | 0.00 | 0.00 | 99 | 1031.6 |
| 20260906050408 | 66 | 42 | 1.0 | 2.0 | 0.00 | 0.00 | 0.00 | 99 | 1031.7 |
| 20260906045907 | 66 | 263 | 0.0 | 0.0 | 0.00 | 0.00 | 0.00 | 99 | 1031.5 |
| 20260906045406 | 66 | 262 | 0.0 | 0.0 | 0.00 | 0.00 | 0.00 | 99 | 1031.6 |
| 20260906044903 | 66 | 262 | 0.0 | 0.0 | 0.00 | 0.00 | 0.00 | 99 | 1031.5 |
| 20260906044402 | 66 | 262 | 0.0 | 0.0 | 0.00 | 0.00 | 0.00 | 99 | 1031.6 |
| 20260906043858 | 66 | 263 | 0.0 | 1.0 | 0.00 | 0.00 | 0.00 | 99 | 1031.5 |
| 20260906043354 | 66 | 339 | 1.0 | 1.0 | 0.00 | 0.00 | 0.00 | 99 | 1031.5 |
| 20260906042849 | 67 | 223 | 0.0 | 0.0 | 0.00 | 0.00 | 0.00 | 99 | 1031.4 |
| 20260906042348 | 67 | 223 | 1.0 | 2.0 | 0.00 | 0.00 | 0.00 | 99 | 1031.4 |
| 20260906041844 | 67 | 231 | 2.0 | 2.0 | 0.00 | 0.00 | 0.00 | 99 | 1031.4 |
| 20260906041339 | 67 | 14 | 0.0 | 0.0 | 0.00 | 0.00 | 0.00 | 99 | 1031.6 |
| 20260906040839 | 67 | 52 | 1.0 | 1.0 | 0.00 | 0.00 | 0.00 | 99 | 1031.9 |
| 20260906040335 | 67 | 53 | 0.0 | 1.0 | 0.00 | 0.00 | 0.00 | 99 | 1031.9 |
| 20260906035830 | 67 | 194 | 0.0 | 0.0 | 0.00 | 0.11 | 0.11 | 99 | 1032.0 |
| 20260906035325 | 68 | 195 | 0.0 | 0.0 | 0.00 | 0.11 | 0.11 | 99 | 1031.9 |
| 20260906034821 | 68 | 321 | 0.0 | 0.0 | 0.00 | 0.11 | 0.11 | 99 | 1032.0 |
| 20260906034321 | 68 | 321 | 0.0 | 0.0 | 0.00 | 0.11 | 0.11 | 99 | 1032.1 |
| 20260906033817 | 68 | 321 | 0.0 | 0.0 | 0.00 | 0.11 | 0.11 | 99 | 1032.1 |
| 20260906033315 | 68 | 321 | 0.0 | 0.0 | 0.00 | 0.11 | 0.11 | 99 | 1032.1 |
| 20260906032812 | 68 | 321 | 0.0 | 0.0 | 0.00 | 0.11 | 0.11 | 99 | 1032.0 |
| 20260906032307 | 68 | 344 | 2.0 | 3.0 | 0.00 | 0.11 | 0.11 | 99 | 1032.2 |
| 20260906031803 | 68 | 345 | 2.0 | 2.0 | 0.00 | 0.11 | 0.11 | 99 | 1031.9 |
| 20260906031258 | 68 | 95 | 1.0 | 2.0 | 0.00 | 0.11 | 0.11 | 98 | 1031.9 |
| 20260906030758 | 68 | 208 | 0.0 | 0.0 | 0.00 | 0.11 | 0.11 | 98 | 1031.9 |
| 20260906030253 | 68 | 208 | 0.0 | 0.0 | 0.00 | 0.11 | 0.11 | 98 | 1032.0 |
| 20260906025753 | 69 | 208 | 0.0 | 0.0 | 0.00 | 0.11 | 0.11 | 98 | 1032.0 |
| 20260906025247 | 69 | 208 | 0.0 | 1.0 | 0.00 | 0.11 | 0.11 | 97 | 1032.0 |
| 20260906024746 | 69 | 208 | 0.0 | 0.0 | 0.00 | 0.11 | 0.11 | 97 | 1032.0 |
| 20260906024245 | 69 | 208 | 1.0 | 1.0 | 0.00 | 0.11 | 0.11 | 97 | 1032.1 |
| 20260906023741 | 69 | 208 | 1.0 | 1.0 | 0.00 | 0.11 | 0.11 | 97 | 1031.9 |
| 20260906023236 | 69 | 208 | 0.0 | 0.0 | 0.00 | 0.11 | 0.11 | 97 | 1032.1 |
| 20260906022732 | 69 | 208 | 0.0 | 0.0 | 0.00 | 0.11 | 0.11 | 96 | 1031.9 |
| 20260906022227 | 70 | 208 | 0.0 | 0.0 | 0.00 | 0.11 | 0.11 | 96 | 1032.1 |
| 20260906021723 | 70 | 208 | 0.0 | 0.0 | 0.00 | 0.11 | 0.11 | 96 | 1032.1 |
| 20260906021221 | 70 | 208 | 0.0 | 0.0 | 0.00 | 0.11 | 0.11 | 95 | 1032.1 |
| 20260906020716 | 70 | 208 | 0.0 | 0.0 | 0.00 | 0.11 | 0.11 | 95 | 1032.1 |
| 20260906020211 | 70 | 208 | 0.0 | 0.0 | 0.00 | 0.11 | 0.11 | 95 | 1032.1 |
| 20260906015706 | 70 | 208 | 0.0 | 0.0 | 0.00 | 0.11 | 0.11 | 95 | 1032.0 |
| 20260906015205 | 71 | 208 | 1.0 | 1.0 | 0.00 | 0.11 | 0.11 | 95 | 1032.2 |
| 20260906014704 | 71 | 209 | 1.0 | 1.0 | 0.00 | 0.11 | 0.11 | 95 | 1031.8 |
| 20260906014200 | 71 | 207 | 1.0 | 1.0 | 0.00 | 0.11 | 0.11 | 94 | 1032.0 |
| 20260906013656 | 71 | 207 | 1.0 | 1.0 | 0.00 | 0.11 | 0.11 | 94 | 1032.0 |
| 20260906013151 | 71 | 199 | 1.0 | 2.0 | 0.00 | 0.11 | 0.11 | 93 | 1031.9 |
| 20260906012645 | 72 | 185 | 1.0 | 1.0 | 0.00 | 0.11 | 0.11 | 91 | 1031.8 |
| 20260906012139 | 72 | 210 | 0.0 | 0.0 | 0.00 | 0.11 | 0.11 | 90 | 1031.5 |
| 20260906011635 | 73 | 210 | 0.0 | 1.0 | 0.00 | 0.11 | 0.11 | 89 | 1031.4 |
| 20260906011130 | 73 | 206 | 1.0 | 2.0 | 0.00 | 0.11 | 0.11 | 88 | 1031.3 |
| 20260906010625 | 75 | 257 | 0.0 | 0.0 | 0.00 | 0.11 | 0.11 | 83 | 1031.5 |
| 20260906010122 | 75 | 257 | 0.0 | 1.0 | 0.00 | 0.11 | 0.11 | 82 | 1031.4 |
| 20260906005621 | 76 | 258 | 0.0 | 1.0 | 0.00 | 0.11 | 0.11 | 81 | 1031.3 |
| 20260906005120 | 75 | 330 | 3.0 | 3.0 | 0.00 | 0.11 | 0.11 | 80 | 1031.0 |
| 20260906004619 | 75 | 336 | 3.0 | 4.0 | 0.00 | 0.11 | 0.11 | 80 | 1031.0 |
| 20260906004114 | 75 | 329 | 4.0 | 4.0 | 0.00 | 0.11 | 0.11 | 81 | 1031.0 |
| 20260906003610 | 76 | 318 | 2.0 | 3.0 | 0.00 | 0.11 | 0.11 | 81 | 1031.0 |
| 20260906003106 | 76 | 314 | 2.0 | 3.0 | 0.00 | 0.11 | 0.11 | 80 | 1031.2 |
| 20260906002600 | 76 | 260 | 1.0 | 1.0 | 0.00 | 0.11 | 0.11 | 80 | 1031.3 |
| 20260906002056 | 76 | 321 | 2.0 | 3.0 | 0.00 | 0.11 | 0.11 | 79 | 1031.0 |
| 20260906001551 | 76 | 333 | 3.0 | 4.0 | 0.00 | 0.11 | 0.11 | 79 | 1031.3 |
| 20260906001051 | 76 | 328 | 3.0 | 4.0 | 0.00 | 0.11 | 0.11 | 79 | 1031.2 |
| 20260906000547 | 76 | 333 | 2.0 | 4.0 | 0.00 | 0.11 | 0.11 | 78 | 1030.8 |
| 20260906000042 | 77 | 326 | 2.0 | 3.0 | 0.00 | 0.11 | 0.11 | 78 | 1031.0 |
| 20260905235541 | 77 | 334 | 3.0 | 4.0 | 0.00 | 0.11 | 0.11 | 77 | 1030.9 |
| 20260905235036 | 77 | 317 | 3.0 | 4.0 | 0.00 | 0.11 | 0.11 | 77 | 1030.8 |
| 20260905234526 | 77 | 318 | 2.0 | 4.0 | 0.00 | 0.11 | 0.11 | 77 | 1031.2 |
| 20260905234026 | 77 | 349 | 2.0 | 3.0 | 0.00 | 0.11 | 0.11 | 77 | 1030.9 |
| 20260905233521 | 78 | 353 | 1.0 | 4.0 | 0.00 | 0.11 | 0.11 | 77 | 1031.0 |
| 20260905233021 | 78 | 343 | 3.0 | 3.0 | 0.00 | 0.11 | 0.11 | 76 | 1030.9 |
| 20260905232516 | 78 | 335 | 2.0 | 4.0 | 0.00 | 0.11 | 0.11 | 75 | 1030.8 |
| 20260905232012 | 79 | 343 | 3.0 | 6.0 | 0.00 | 0.11 | 0.11 | 74 | 1031.0 |
| 20260905231507 | 79 | 352 | 4.0 | 4.0 | 0.00 | 0.11 | 0.11 | 73 | 1031.0 |
| 20260905231003 | 79 | 335 | 4.0 | 6.0 | 0.00 | 0.11 | 0.11 | 73 | 1030.9 |
| 20260905230502 | 79 | 339 | 4.0 | 6.0 | 0.00 | 0.11 | 0.11 | 72 | 1030.9 |
| 20260905230000 | 79 | 343 | 3.0 | 7.0 | 0.00 | 0.11 | 0.11 | 72 | 1030.8 |
| 20260905225455 | 80 | 336 | 4.0 | 8.0 | 0.00 | 0.11 | 0.11 | 72 | 1031.0 |
| 20260905224951 | 80 | 31 | 12.0 | 14.0 | 0.00 | 0.11 | 0.11 | 70 | 1031.2 |
| 20260905224446 | 80 | 7 | 4.0 | 7.0 | 0.00 | 0.11 | 0.11 | 71 | 1031.0 |
| 20260905223945 | 80 | 329 | 5.0 | 10.0 | 0.00 | 0.11 | 0.11 | 70 | 1031.0 |
| 20260905223443 | 81 | 336 | 5.0 | 7.0 | 0.00 | 0.11 | 0.11 | 69 | 1031.2 |
| 20260905222938 | 81 | 14 | 5.0 | 8.0 | 0.00 | 0.11 | 0.11 | 67 | 1030.8 |
| 20260905222437 | 81 | 353 | 6.0 | 8.0 | 0.00 | 0.11 | 0.11 | 68 | 1030.8 |
| 20260905221933 | 81 | 315 | 2.0 | 3.0 | 0.00 | 0.11 | 0.11 | 68 | 1030.7 |
| 20260905221429 | 81 | 359 | 5.0 | 6.0 | 0.00 | 0.11 | 0.11 | 66 | 1030.7 |
| 20260905220926 | 82 | 27 | 1.0 | 6.0 | 0.00 | 0.11 | 0.11 | 67 | 1030.7 |
| 20260905220421 | 82 | 43 | 3.0 | 7.0 | 0.00 | 0.11 | 0.11 | 65 | 1030.3 |
| 20260905215920 | 82 | 343 | 7.0 | 10.0 | 0.00 | 0.11 | 0.11 | 65 | 1030.4 |
| 20260905215416 | 83 | 333 | 1.0 | 6.0 | 0.00 | 0.11 | 0.11 | 66 | 1030.6 |
| 20260905214912 | 82 | 287 | 0.0 | 2.0 | 0.00 | 0.11 | 0.11 | 64 | 1030.4 |
| 20260905214408 | 82 | 325 | 5.0 | 6.0 | 0.00 | 0.11 | 0.11 | 63 | 1030.4 |
| 20260905213908 | 83 | 332 | 2.0 | 4.0 | 0.00 | 0.11 | 0.11 | 65 | 1030.2 |
| 20260905213404 | 83 | 349 | 5.0 | 8.0 | 0.00 | 0.11 | 0.11 | 63 | 1030.3 |
| 20260905212859 | 83 | 342 | 7.0 | 8.0 | 0.00 | 0.11 | 0.11 | 64 | 1030.2 |
| 20260905212354 | 83 | 32 | 2.0 | 4.0 | 0.00 | 0.11 | 0.11 | 65 | 1030.1 |
| 20260905211853 | 82 | 334 | 5.0 | 6.0 | 0.00 | 0.11 | 0.11 | 64 | 1030.2 |
| 20260905211349 | 82 | 345 | 5.0 | 9.0 | 0.00 | 0.11 | 0.11 | 62 | 1030.2 |
| 20260905210840 | 82 | 344 | 7.0 | 8.0 | 0.00 | 0.11 | 0.11 | 62 | 1030.1 |
| 20260905210340 | 83 | 48 | 4.0 | 6.0 | 0.00 | 0.11 | 0.11 | 64 | 1030.2 |
| 20260905205839 | 83 | 59 | 6.0 | 7.0 | 0.00 | 0.11 | 0.11 | 64 | 1030.1 |
| 20260905205339 | 83 | 309 | 3.0 | 6.0 | 0.00 | 0.11 | 0.11 | 64 | 1030.2 |
| 20260905204838 | 83 | 0 | 4.0 | 7.0 | 0.00 | 0.11 | 0.11 | 63 | 1030.2 |
| 20260905204335 | 83 | 336 | 9.0 | 13.0 | 0.00 | 0.11 | 0.11 | 62 | 1029.9 |
| 20260905203833 | 84 | 331 | 8.0 | 11.0 | 0.00 | 0.11 | 0.11 | 61 | 1029.9 |
| 20260905203329 | 84 | 306 | 1.0 | 9.0 | 0.00 | 0.11 | 0.11 | 63 | 1030.1 |
| 20260905202824 | 83 | 299 | 4.0 | 8.0 | 0.00 | 0.11 | 0.11 | 63 | 1030.0 |
| 20260905202314 | 83 | 9 | 2.0 | 7.0 | 0.00 | 0.11 | 0.11 | 64 | 1030.2 |
| 20260905201809 | 83 | 19 | 3.0 | 3.0 | 0.00 | 0.11 | 0.11 | 66 | 1030.2 |
| 20260905201304 | 83 | 325 | 3.0 | 8.0 | 0.00 | 0.11 | 0.11 | 63 | 1030.0 |
| 20260905200759 | 84 | 348 | 3.0 | 6.0 | 0.00 | 0.11 | 0.11 | 65 | 1030.1 |
| 20260905200255 | 84 | 357 | 1.0 | 7.0 | 0.00 | 0.11 | 0.11 | 63 | 1030.1 |
| 20260905195752 | 83 | 329 | 6.0 | 9.0 | 0.00 | 0.11 | 0.11 | 65 | 1030.2 |
| 20260905195247 | 83 | 358 | 2.0 | 4.0 | 0.00 | 0.11 | 0.11 | 67 | 1030.4 |
| 20260905194744 | 84 | 53 | 6.0 | 8.0 | 0.00 | 0.11 | 0.11 | 65 | 1030.3 |
| 20260905194243 | 84 | 4 | 3.0 | 8.0 | 0.00 | 0.11 | 0.11 | 69 | 1030.5 |
| 20260905193742 | 83 | 315 | 1.0 | 4.0 | 0.00 | 0.11 | 0.11 | 69 | 1030.6 |
| 20260905193237 | 84 | 286 | 2.0 | 7.0 | 0.00 | 0.11 | 0.11 | 70 | 1030.5 |
| 20260905192732 | 83 | 270 | 0.0 | 8.0 | 0.00 | 0.11 | 0.11 | 72 | 1030.7 |
| 20260905192229 | 83 | 342 | 3.0 | 6.0 | 0.00 | 0.11 | 0.11 | 68 | 1030.7 |
| 20260905191728 | 83 | 314 | 7.0 | 11.0 | 0.00 | 0.11 | 0.11 | 68 | 1030.7 |
| 20260905191226 | 82 | 250 | 1.0 | 9.0 | 0.00 | 0.11 | 0.11 | 72 | 1030.9 |
| 20260905190725 | 82 | 321 | 3.0 | 9.0 | 0.00 | 0.11 | 0.11 | 72 | 1030.8 |
| 20260905190224 | 81 | 267 | 0.0 | 3.0 | 0.00 | 0.11 | 0.11 | 73 | 1030.9 |
| 20260905185723 | 82 | 43 | 2.0 | 6.0 | 0.00 | 0.11 | 0.11 | 74 | 1031.0 |
| 20260905185218 | 81 | 340 | 2.0 | 6.0 | 0.00 | 0.11 | 0.11 | 79 | 1031.3 |
| 20260905184713 | 83 | 328 | 3.0 | 10.0 | 0.00 | 0.11 | 0.11 | 75 | 1031.0 |
| 20260905184212 | 82 | 110 | 0.0 | 1.0 | 0.00 | 0.11 | 0.11 | 79 | 1031.3 |
| 20260905183711 | 81 | 108 | 2.0 | 2.0 | 0.00 | 0.11 | 0.11 | 77 | 1031.4 |
| 20260905183207 | 81 | 257 | 1.0 | 4.0 | 0.00 | 0.11 | 0.11 | 79 | 1031.5 |
| 20260905182706 | 81 | 150 | 2.0 | 3.0 | 0.00 | 0.11 | 0.11 | 79 | 1031.6 |
| 20260905182201 | 81 | 156 | 2.0 | 3.0 | 0.00 | 0.11 | 0.11 | 78 | 1031.8 |
| 20260905181656 | 82 | 292 | 2.0 | 3.0 | 0.00 | 0.11 | 0.11 | 78 | 1031.7 |
| 20260905181155 | 82 | 137 | 2.0 | 2.0 | 0.00 | 0.11 | 0.11 | 79 | 1031.9 |
| 20260905180649 | 81 | 317 | 2.0 | 3.0 | 0.00 | 0.11 | 0.11 | 78 | 1032.0 |
| 20260905180145 | 79 | 190 | 1.0 | 1.0 | 0.00 | 0.11 | 0.11 | 82 | 1032.2 |
| 20260905175643 | 78 | 179 | 0.0 | 2.0 | 0.00 | 0.11 | 0.11 | 83 | 1032.1 |
| 20260905175139 | 77 | 23 | 0.0 | 1.0 | 0.00 | 0.11 | 0.11 | 87 | 1032.1 |
| 20260905174635 | 78 | 21 | 2.0 | 3.0 | 0.00 | 0.11 | 0.11 | 87 | 1032.2 |
| 20260905174130 | 76 | 312 | 1.0 | 2.0 | 0.00 | 0.11 | 0.11 | 88 | 1032.4 |
| 20260905173627 | 76 | 5 | 2.0 | 2.0 | 0.00 | 0.11 | 0.11 | 89 | 1032.7 |
| 20260905173122 | 76 | 51 | 2.0 | 2.0 | 0.00 | 0.11 | 0.11 | 90 | 1032.7 |
| 20260905172621 | 75 | 19 | 0.0 | 4.0 | 0.00 | 0.11 | 0.11 | 89 | 1032.5 |
| 20260905172116 | 75 | 346 | 1.0 | 4.0 | 0.00 | 0.11 | 0.11 | 89 | 1032.8 |
| 20260905171612 | 75 | 322 | 2.0 | 3.0 | 0.00 | 0.11 | 0.11 | 90 | 1032.8 |
| 20260905171108 | 75 | 327 | 0.0 | 3.0 | 0.00 | 0.11 | 0.11 | 91 | 1032.8 |
| 20260905170604 | 75 | 240 | 0.0 | 1.0 | 0.00 | 0.11 | 0.11 | 92 | 1032.5 |
| 20260905170059 | 74 | 196 | 1.0 | 2.0 | 0.00 | 0.11 | 0.11 | 90 | 1032.9 |
| 20260905165559 | 74 | 190 | 0.0 | 2.0 | 0.00 | 0.11 | 0.11 | 91 | 1032.8 |
| 20260905165054 | 74 | 289 | 2.0 | 2.0 | 0.00 | 0.11 | 0.11 | 93 | 1032.7 |
| 20260905164549 | 73 | 192 | 4.0 | 4.0 | 0.00 | 0.11 | 0.11 | 92 | 1032.4 |
| 20260905164044 | 73 | 209 | 2.0 | 4.0 | 0.00 | 0.11 | 0.11 | 93 | 1032.3 |
| 20260905163540 | 73 | 273 | 4.0 | 7.0 | 0.00 | 0.11 | 0.11 | 94 | 1032.0 |
| 20260905163036 | 73 | 209 | 3.0 | 10.0 | 0.00 | 0.11 | 0.11 | 94 | 1032.4 |
| 20260905162532 | 73 | 241 | 1.0 | 3.0 | 0.00 | 0.11 | 0.11 | 94 | 1032.5 |
| 20260905162026 | 73 | 207 | 3.0 | 9.0 | 0.00 | 0.11 | 0.11 | 94 | 1032.5 |
| 20260905161526 | 73 | 239 | 4.0 | 4.0 | 0.00 | 0.11 | 0.11 | 92 | 1032.7 |
| 20260905161024 | 73 | 225 | 2.0 | 2.0 | 0.00 | 0.11 | 0.11 | 93 | 1033.0 |
| 20260905160517 | 73 | 191 | 2.0 | 4.0 | 0.00 | 0.11 | 0.11 | 93 | 1033.3 |
| 20260905160018 | 73 | 200 | 1.0 | 2.0 | 0.00 | 0.11 | 0.11 | 93 | 1033.5 |
| 20260905155517 | 73 | 143 | 1.0 | 3.0 | 0.00 | 0.11 | 0.11 | 92 | 1033.8 |
| 20260905155015 | 74 | 206 | 2.0 | 4.0 | 0.00 | 0.11 | 0.11 | 92 | 1033.9 |
| 20260905154511 | 73 | 192 | 1.0 | 2.0 | 0.00 | 0.11 | 0.11 | 94 | 1033.9 |
| 20260905154007 | 73 | 201 | 5.0 | 6.0 | 0.00 | 0.11 | 0.11 | 94 | 1034.2 |
| 20260905153503 | 73 | 150 | 0.0 | 1.0 | 0.00 | 0.11 | 0.11 | 99 | 1034.3 |
| 20260905153002 | 72 | 347 | 0.0 | 0.0 | 0.00 | 0.11 | 0.11 | 99 | 1034.4 |
| 20260905152502 | 71 | 4 | 0.0 | 1.0 | 0.00 | 0.11 | 0.11 | 99 | 1034.5 |
| 20260905151957 | 70 | 70 | 0.0 | 1.0 | 0.00 | 0.11 | 0.11 | 99 | 1034.3 |
| 20260905151452 | 71 | 330 | 1.0 | 2.0 | 0.00 | 0.11 | 0.11 | 99 | 1034.4 |
| 20260905150947 | 69 | 155 | 1.0 | 2.0 | 0.00 | 0.11 | 0.11 | 99 | 1034.4 |
| 20260905150443 | 70 | 169 | 1.0 | 1.0 | 0.00 | 0.11 | 0.11 | 99 | 1034.6 |
| 20260905145939 | 69 | 70 | 1.0 | 1.0 | 0.00 | 0.11 | 0.11 | 99 | 1034.3 |
| 20260905145439 | 69 | 143 | 1.0 | 1.0 | 0.00 | 0.11 | 0.11 | 99 | 1034.3 |
| 20260905144933 | 68 | 162 | 1.0 | 1.0 | 0.00 | 0.11 | 0.11 | 99 | 1034.3 |
| 20260905144428 | 68 | 346 | 0.0 | 0.0 | 0.14 | 0.11 | 0.11 | 99 | 1034.6 |
| 20260905143927 | 68 | 358 | 2.0 | 3.0 | 0.50 | 0.11 | 0.11 | 99 | 1034.3 |
| 20260905143426 | 68 | 5 | 3.0 | 4.0 | 0.35 | 0.08 | 0.08 | 99 | 1034.5 |
| 20260905142921 | 68 | 4 | 6.0 | 11.0 | 0.12 | 0.03 | 0.03 | 99 | 1034.4 |
| 20260905142420 | 68 | 1 | 7.0 | 13.0 | 0.12 | 0.02 | 0.02 | 99 | 1034.0 |
| 20260905141916 | 68 | 1 | 4.0 | 6.0 | 0.00 | 0.00 | 0.00 | 99 | 1033.9 |
| 20260905141411 | 68 | 329 | 8.0 | 11.0 | 0.00 | 0.00 | 0.00 | 99 | 1034.0 |
| 20260905140907 | 68 | 349 | 8.0 | 10.0 | 0.00 | 0.00 | 0.00 | 99 | 1033.9 |
| 20260905140402 | 67 | 15 | 6.0 | 16.0 | 0.00 | 0.00 | 0.00 | 99 | 1033.8 |
| 20260905135901 | 67 | 20 | 2.0 | 3.0 | 0.00 | 0.00 | 0.00 | 99 | 1033.4 |
| 20260905135356 | 67 | 359 | 0.0 | 0.0 | 0.00 | 0.00 | 0.00 | 99 | 1033.3 |
| 20260905134851 | 68 | 346 | 0.0 | 0.0 | 0.00 | 0.00 | 0.00 | 99 | 1033.2 |
| 20260905134350 | 68 | 332 | 0.0 | 0.0 | 0.00 | 0.00 | 0.00 | 99 | 1033.1 |
| 20260905133844 | 69 | 83 | 0.0 | 0.0 | 0.00 | 0.00 | 0.00 | 99 | 1033.0 |
| 20260905133339 | 68 | 83 | 0.0 | 0.0 | 0.00 | 0.00 | 0.00 | 99 | 1033.0 |
| 20260905132838 | 68 | 80 | 0.0 | 0.0 | 0.00 | 0.00 | 0.00 | 99 | 1033.2 |
| 20260905132334 | 67 | 82 | 0.0 | 0.0 | 0.00 | 0.00 | 0.00 | 99 | 1033.0 |
| 20260905131828 | 68 | 138 | 0.0 | 0.0 | 0.00 | 0.00 | 0.00 | 99 | 1033.0 |
| 20260905131324 | 67 | 139 | 0.0 | 0.0 | 0.00 | 0.00 | 0.00 | 99 | 1033.0 |
| 20260905130819 | 67 | 139 | 0.0 | 0.0 | 0.00 | 0.00 | 0.00 | 99 | 1032.9 |
| 20260905130317 | 66 | 124 | 0.0 | 0.0 | 0.00 | 0.00 | 0.00 | 99 | 1033.1 |
| 20260905125813 | 66 | 175 | 0.0 | 1.0 | 0.00 | 0.00 | 0.00 | 99 | 1033.0 |
| 20260905125308 | 66 | 101 | 0.0 | 0.0 | 0.00 | 0.00 | 0.00 | 99 | 1033.1 |
| 20260905124804 | 66 | 102 | 0.0 | 0.0 | 0.00 | 0.00 | 0.00 | 99 | 1033.3 |
| 20260905124300 | 66 | 87 | 1.0 | 1.0 | 0.00 | 0.00 | 0.00 | 99 | 1033.1 |
| 20260905123755 | 66 | 135 | 0.0 | 0.0 | 0.00 | 0.00 | 0.00 | 99 | 1033.1 |
| 20260905123252 | 66 | 172 | 0.0 | 0.0 | 0.00 | 0.00 | 0.00 | 99 | 1032.9 |
| 20260905122752 | 66 | 139 | 0.0 | 0.0 | 0.00 | 0.00 | 0.00 | 99 | 1033.1 |
| 20260905122251 | 66 | 53 | 0.0 | 0.0 | 0.00 | 0.00 | 0.00 | 99 | 1033.1 |
| 20260905121746 | 66 | 53 | 0.0 | 0.0 | 0.00 | 0.00 | 0.00 | 99 | 1032.9 |
| 20260905121243 | 65 | 54 | 0.0 | 0.0 | 0.00 | 0.00 | 0.00 | 99 | 1033.0 |
| 20260905120741 | 65 | 53 | 0.0 | 0.0 | 0.00 | 0.00 | 0.00 | 99 | 1033.0 |
| 20260905120236 | 65 | 54 | 0.0 | 0.0 | 0.00 | 0.00 | 0.00 | 99 | 1033.1 |
| 20260905115732 | 65 | 55 | 0.0 | 1.0 | 0.00 | 0.00 | 0.00 | 99 | 1033.0 |
| 20260905115231 | 65 | 25 | 0.0 | 0.0 | 0.00 | 0.00 | 0.00 | 99 | 1032.8 |
| 20260905114726 | 65 | 21 | 0.0 | 0.0 | 0.00 | 0.00 | 0.00 | 99 | 1032.9 |
| 20260905114224 | 65 | 94 | 0.0 | 0.0 | 0.00 | 0.00 | 0.00 | 99 | 1032.8 |
| 20260905113724 | 65 | 178 | 0.0 | 0.0 | 0.00 | 0.00 | 0.00 | 99 | 1033.0 |
| 20260905113220 | 65 | 178 | 0.0 | 0.0 | 0.00 | 0.00 | 0.00 | 99 | 1032.9 |
| 20260905112720 | 65 | 178 | 0.0 | 0.0 | 0.00 | 0.00 | 0.00 | 99 | 1032.7 |
| 20260905112215 | 65 | 178 | 0.0 | 0.0 | 0.00 | 0.00 | 0.00 | 99 | 1032.5 |
| 20260905111715 | 65 | 177 | 0.0 | 1.0 | 0.00 | 0.00 | 0.00 | 99 | 1032.7 |
| 20260905111215 | 65 | 171 | 0.0 | 0.0 | 0.00 | 0.00 | 0.00 | 99 | 1032.7 |
| 20260905110709 | 65 | 197 | 0.0 | 0.0 | 0.00 | 0.00 | 0.00 | 99 | 1032.5 |
| 20260905110203 | 65 | 197 | 0.0 | 0.0 | 0.00 | 0.00 | 0.00 | 99 | 1032.4 |
| 20260905105658 | 65 | 196 | 0.0 | 0.0 | 0.00 | 0.00 | 0.00 | 99 | 1032.5 |
| 20260905105157 | 65 | 22 | 0.0 | 0.0 | 0.00 | 0.00 | 0.00 | 99 | 1032.7 |